[[{"header":{"parameterUnit":"m.s-1","parameterCategory":1,"la1":30.2991,"la2":30.254,"lo1":-89.0895,"lo2":-89.0444,"dy":0.0017,"dx":0.0017,"nx":28,"ny":28,"refTime":"2024-09-30T09:00:00:Z","depth":0,"parameterNumber":2,"parameterNumberName":"U-component_of_WINDS"},"data":[0,0,0,0,0,0,0,0,0,0,0,0,0,0,0,0,0,0,0,0,0,0,0,0,0,0,0,0,0,0,0,0,0,0,0,0,0,0,0,0,0,0,0,0,0,0,0,0,0,0,0,0,0,0,0,0,0,0,0.3788,0.3788,0,0.3831,0.3831,0.3832,0.3903,0.3905,0.3906,0.3907,0.3951,0.3951,0.3951,0,0,0,0,0,0,0,0,0,0,0,0,0,0.3766,0.3766,0.3788,0.3788,0.3789,0.3831,0.3831,0.3832,0.3903,0.3905,0.3906,0.3908,0.3951,0.3951,0.3951,0,0,0,0,0,0,0,0,0,0,0,0,0,0.3789,0.3766,0.3787,0.3829,0.3833,0.3831,0.3831,0.3832,0.3903,0.3905,0.3907,0.3909,0.3951,0.3951,0.3951,0.391,0,0,0.395,0.395,0,0,0,0,0,0,0,0,0.3787,0.379,0.3823,0.3826,0.3831,0.3864,0.384,0.3858,0.3902,0.3876,0.3907,0.391,0.392,0.3923,0.3926,0.3912,0.3914,0.395,0.395,0.395,0.395,0,0,0,0,0,0,0,0.3786,0.3788,0.3805,0.3823,0.3828,0.3846,0.3851,0.3844,0.3887,0.3879,0.3884,0.3888,0.3923,0.3926,0.3928,0.3915,0.395,0.395,0.395,0.395,0.3871,0.3869,0,0,0,0,0,0,0.3778,0.3786,0.3803,0.3806,0.3814,0.3844,0.3851,0.3851,0.3887,0.3894,0.3887,0.3891,0.3926,0.3928,0.393,0.3886,0.395,0.395,0.395,0.3873,0.3871,0.3868,0,0,0,0,0,0,0.3777,0.3779,0.3802,0.3798,0.3802,0.3843,0.3843,0.3851,0.3855,0.3893,0.3901,0.3882,0.3927,0.393,0.3915,0.3888,0.395,0.395,0.3876,0.3872,0.387,0.3797,0,0,0,0,0,0,0.3776,0.3778,0.3763,0.3797,0.3802,0.3786,0.3841,0.385,0.3854,0.3861,0.3891,0.3898,0.3929,0.3915,0.3915,0.3889,0.395,0.3878,0.3874,0.3871,0.3802,0.3792,0.3783,0,0,0,0,0,0.3775,0.3741,0.3762,0.3764,0.3784,0.3784,0.3787,0.3824,0.3852,0.3837,0.3862,0.3897,0.3891,0.3913,0.3913,0.3887,0.388,0.3875,0.3871,0.3806,0.3794,0.3783,0,0,0,0,0,0,0.3703,0.3746,0.377,0.3745,0.3761,0.3796,0.3779,0.381,0.3817,0.3823,0.3868,0.3874,0.3854,0.3869,0.3892,0.3851,0.3891,0.3886,0.3841,0.383,0.3821,0.3818,0.395,0,0,0,0,0,0.3684,0.368,0.3718,0.3693,0.3699,0.3737,0.3739,0.3766,0.3784,0.379,0.3814,0.3829,0.3831,0.3832,0.3835,0.3804,0.3812,0.3787,0.3778,0.377,0.3765,0.3751,0.374,0.3853,0.3854,0.3854,0,0,0.3645,0.3668,0.3663,0.3679,0.3694,0.3689,0.3742,0.3735,0.3732,0.3789,0.3777,0.3794,0.3815,0.3792,0.3783,0.3804,0.3736,0.3764,0.3757,0.3757,0.3745,0.3735,0.3725,0.385,0.3851,0.3851,0,0,0.3571,0.3588,0.3569,0.3583,0.3606,0.3632,0.3627,0.3658,0.3672,0.366,0.3703,0.37,0.3702,0.3716,0.3722,0.3655,0.3687,0.3655,0.3606,0.3591,0.3582,0.3575,0.3551,0.3542,0.365,0.365,0.365,0,0.352,0.3515,0.3555,0.3546,0.3552,0.3603,0.3585,0.3596,0.3618,0.3621,0.3645,0.3649,0.3666,0.3648,0.3631,0.3635,0.3631,0.3651,0.358,0.3573,0.3567,0.3545,0.3536,0.3646,0.3646,0.3647,0.3647,0,0.3451,0.3447,0.3429,0.3449,0.3453,0.3439,0.3477,0.3476,0.3503,0.3527,0.3514,0.3537,0.3547,0.3544,0.357,0.353,0.3542,0.3572,0.3614,0.3551,0.3531,0.3523,0.364,0.3641,0.3643,0.3644,0,0,0.3333,0.3376,0.3369,0.338,0.3408,0.3406,0.3394,0.3404,0.3402,0.3416,0.3408,0.3409,0.3437,0.3445,0.3473,0.346,0.3406,0.3492,0.3493,0.3476,0.3363,0.3341,0.333,0.3427,0.3426,0.3425,0.3362,0,0.3266,0.3248,0.3285,0.3258,0.3256,0.3305,0.3295,0.3311,0.3333,0.3334,0.3358,0.3358,0.3395,0.34,0.339,0.3414,0.3384,0.3419,0.342,0.342,0.3414,0.332,0.3296,0.3236,0.3354,0.3353,0.3352,0,0.3185,0.3195,0.3169,0.32,0.32,0.319,0.3203,0.3202,0.3222,0.3239,0.3248,0.3281,0.3272,0.3312,0.33,0.3324,0.3326,0.3339,0.3337,0.3339,0.3382,0.332,0.3217,0.3208,0.334,0.3341,0.3342,0,0.3102,0.3109,0.3095,0.3102,0.3137,0.3129,0.3144,0.3166,0.317,0.318,0.3184,0.3193,0.3198,0.3205,0.324,0.3265,0.3224,0.3267,0.3238,0.3237,0.3228,0.3228,0.3124,0.3228,0.3228,0.3229,0.3229,0,0.3024,0.3006,0.3058,0.3049,0.3031,0.3073,0.3053,0.3073,0.3092,0.3088,0.313,0.3126,0.3172,0.3172,0.32,0.3187,0.3188,0.3202,0.321,0.3198,0.3197,0.3201,0.3206,0.3226,0.3227,0.3227,0.3228,0,0.2929,0.2963,0.295,0.2985,0.2993,0.2978,0.3008,0.3001,0.3026,0.302,0.3021,0.306,0.3063,0.3098,0.3108,0.3127,0.3103,0.3118,0.3096,0.3102,0.3072,0.3074,0.2968,0.2956,0.3066,0.3065,0.3064,0,0.2877,0.2864,0.2898,0.2898,0.291,0.291,0.2915,0.2956,0.2958,0.2981,0.2971,0.2978,0.2985,0.2987,0.3016,0.3025,0.3041,0.3003,0.3042,0.3032,0.3041,0.3042,0.3041,0.2995,0.2993,0.2992,0.2991,0,0.2781,0.2798,0.2803,0.2814,0.2818,0.2828,0.2841,0.2839,0.2884,0.2885,0.2889,0.2894,0.2905,0.2911,0.2925,0.294,0.2973,0.2979,0.2973,0.2961,0.295,0.2957,0.3074,0.2981,0.2982,0.2983,0.2983,0.2984,0.2706,0.2698,0.272,0.2724,0.2738,0.2749,0.2745,0.2769,0.2773,0.2785,0.2809,0.2809,0.2831,0.2852,0.2865,0.2866,0.2886,0.2877,0.2875,0.2872,0.2866,0.2949,0.2868,0.2869,0.2869,0.2869,0.287,0,0.2613,0.263,0.2634,0.2651,0.2654,0.2685,0.2701,0.2702,0.2701,0.2718,0.2725,0.2729,0.2735,0.2765,0.2775,0.277,0.2785,0.2771,0.2772,0.2775,0.2848,0.2852,0.2758,0.2758,0.2758,0.2758,0.2758,0.2759,0.2566,0.2553,0.2573,0.2568,0.2586,0.2586,0.2593,0.2604,0.2618,0.2621,0.2626,0.2646,0.2668,0.268,0.2687,0.2696,0.2698,0.2678,0.2692,0.2759,0.277,0.278,0.2785,0.2678,0.2678,0.262,0.2619,0.2619]},{"header":{"parameterUnit":"m.s-1","parameterCategory":1,"la1":30.2991,"la2":30.254,"lo1":-89.0895,"lo2":-89.0444,"dy":0.0017,"dx":0.0017,"nx":28,"ny":28,"refTime":"2024-09-30T09:00:00:Z","depth":0,"parameterNumber":3,"parameterNumberName":"V-component_of_WINDS"},"data":[0,0,0,0,0,0,0,0,0,0,0,0,0,0,0,0,0,0,0,0,0,0,0,0,0,0,0,0,0,0,0,0,0,0,0,0,0,0,0,0,0,0,0,0,0,0,0,0,0,0,0,0,0,0,0,0,0,0,0.9849,0.9849,0,0.9912,0.9913,0.9913,0.9954,0.9954,0.9954,0.9955,1.0018,1.002,1.0021,0,0,0,0,0,0,0,0,0,0,0,0,0,0.976,0.9762,0.9849,0.9849,0.985,0.9912,0.9913,0.9913,0.9954,0.9954,0.9954,0.9955,1.0018,1.002,1.0021,0,0,0,0,0,0,0,0,0,0,0,0,0,0.9808,0.9762,0.9848,0.9878,0.9881,0.9912,0.9913,0.9914,0.9954,0.9954,0.9955,0.9955,1.0017,1.002,1.0022,1.0028,0,0,1.0028,1.0029,0,0,0,0,0,0,0,0,0.9806,0.9812,0.9873,0.9876,0.988,0.9925,0.9905,0.9952,0.9954,0.9926,0.9955,0.9955,0.9987,0.9992,1.0003,1.0031,1.0033,1.0029,1.003,1.0031,1.0031,0,0,0,0,0,0,0,0.9802,0.9809,0.9874,0.9874,0.9878,0.9887,0.9894,0.9914,0.9954,0.9929,0.9932,0.9939,0.9989,1.0001,1.0005,1.0034,1.0029,1.003,1.0032,1.0033,1.0068,1.0067,0,0,0,0,0,0,0.9795,0.9806,0.9872,0.9876,0.9843,0.9888,0.9896,0.991,0.9954,0.9961,0.9938,0.994,0.9997,1.0002,1.0007,1.0015,1.0031,1.0033,1.0034,1.0068,1.0068,1.0067,0,0,0,0,0,0,0.9793,0.98,0.9869,0.9842,0.9851,0.9889,0.9905,0.9911,0.9923,0.9961,0.9968,0.9943,0.9997,1.0004,1.0022,1.0018,1.0034,1.0036,1.0069,1.0068,1.0067,1.0033,0,0,0,0,0,0,0.979,0.9799,0.9803,0.9841,0.9852,0.9883,0.9905,0.9912,0.9927,0.993,0.9967,0.9974,0.9998,1.0018,1.0024,1.0022,1.0038,1.0069,1.0068,1.0068,1.0035,1.0031,1.0029,0,0,0,0,0,0.9787,0.9791,0.9803,0.981,0.9858,0.9883,0.989,0.9918,0.9926,0.993,0.9953,0.9973,1.0018,1.002,1.0026,1.0025,1.0069,1.0069,1.0068,1.0036,1.0032,1.0029,0,0,0,0,0,0,0.9751,0.9797,0.981,0.9827,0.9851,0.989,0.9895,0.9913,0.9934,0.9937,0.997,0.9978,0.9992,1.001,1.0012,1.0032,1.0046,1.0046,1.0019,1.0016,1.0013,1.0008,1.0039,0,0,0,0,0,0.9745,0.9763,0.9801,0.9813,0.9824,0.9857,0.9869,0.9889,0.9915,0.9925,0.995,0.9974,0.9993,1.0006,1.0026,1.0037,1.0045,1.0039,1.0036,1.0033,1.0033,1.0039,1.0036,1.0064,1.0064,1.0064,0,0,0.9733,0.976,0.9769,0.9806,0.9827,0.9843,0.9865,0.9882,0.9894,0.9927,0.9946,0.9965,0.9993,1.0007,1.0015,1.0023,1.0027,1.0032,1.003,1.0031,1.0038,1.0035,1.0032,1.0064,1.0064,1.0064,0,0,0.972,0.9743,0.9754,0.9773,0.9804,0.9826,0.9828,0.9864,0.9878,0.9897,0.9921,0.9935,0.9969,0.9987,1.0001,0.9992,1.001,0.9997,0.9981,0.9986,0.9984,0.9982,0.9977,0.9976,0.9997,0.9997,0.9997,0,0.9701,0.9728,0.9757,0.9772,0.9786,0.9816,0.9826,0.9844,0.988,0.9888,0.9897,0.9938,0.9959,0.9977,0.9975,0.9985,0.9988,0.9994,0.9982,0.9981,0.9979,0.9975,0.9973,0.9995,0.9996,0.9996,0.9996,0,0.9702,0.972,0.9725,0.9758,0.9773,0.9785,0.9815,0.9827,0.9844,0.9864,0.9881,0.9908,0.9933,0.9939,0.9956,0.9958,0.9962,0.9976,0.9991,0.9974,0.9971,0.997,0.9993,0.9994,0.9994,0.9994,0,0,0.967,0.9717,0.9719,0.9733,0.9768,0.9781,0.9794,0.9818,0.9826,0.9849,0.986,0.9886,0.9898,0.9914,0.9933,0.9938,0.9926,0.9951,0.9952,0.9944,0.9928,0.9917,0.9915,0.9938,0.9938,0.9938,0.9925,0,0.9662,0.9687,0.9712,0.9728,0.9743,0.977,0.9781,0.9802,0.9821,0.9836,0.9857,0.9874,0.989,0.9899,0.9904,0.9926,0.9923,0.9928,0.9947,0.9948,0.9939,0.9914,0.9903,0.989,0.9924,0.9924,0.9924,0,0.9656,0.9676,0.9693,0.9724,0.9731,0.974,0.9763,0.9777,0.9802,0.9815,0.9831,0.9851,0.9864,0.9877,0.9895,0.9897,0.9907,0.9918,0.9918,0.9921,0.9935,0.9915,0.9887,0.9884,0.9923,0.9923,0.9923,0,0.9629,0.9661,0.9674,0.9686,0.9722,0.9728,0.9743,0.9768,0.978,0.98,0.9807,0.9828,0.984,0.9855,0.988,0.9887,0.9894,0.991,0.9905,0.9904,0.9905,0.9905,0.9877,0.9912,0.9912,0.9912,0.9912,0,0.9616,0.9625,0.9662,0.9671,0.9681,0.9709,0.9718,0.9736,0.9757,0.9768,0.9793,0.9803,0.9835,0.9848,0.9868,0.9878,0.9884,0.9894,0.9899,0.9891,0.989,0.9898,0.9899,0.9911,0.9912,0.9912,0.9912,0,0.9589,0.9614,0.9631,0.9663,0.9671,0.9677,0.9705,0.9713,0.9732,0.9746,0.9751,0.9781,0.9797,0.9823,0.9848,0.9861,0.9868,0.9877,0.986,0.9862,0.9856,0.9855,0.9832,0.983,0.9866,0.9866,0.9865,0,0.9579,0.9587,0.9619,0.9628,0.9642,0.9657,0.9669,0.9696,0.9707,0.9734,0.9738,0.9757,0.9773,0.9798,0.9822,0.984,0.9849,0.9839,0.9852,0.9843,0.9847,0.9846,0.9846,0.9836,0.9836,0.9835,0.9835,0,0.9559,0.957,0.9587,0.9606,0.9619,0.9636,0.9655,0.966,0.9691,0.9702,0.9719,0.9731,0.9755,0.9773,0.9794,0.9809,0.9827,0.9831,0.983,0.9823,0.9812,0.9816,0.9851,0.9831,0.9832,0.9832,0.9832,0.9832,0.954,0.9546,0.957,0.9586,0.9602,0.9618,0.9626,0.9646,0.966,0.9682,0.9696,0.9712,0.9734,0.9764,0.9777,0.9789,0.9797,0.9797,0.9797,0.9796,0.9793,0.981,0.9793,0.9794,0.9794,0.9794,0.9794,0,0.952,0.9535,0.955,0.9574,0.9586,0.96,0.962,0.963,0.9643,0.9661,0.9676,0.9694,0.971,0.9734,0.9752,0.9757,0.9765,0.9761,0.976,0.9763,0.9785,0.9783,0.9753,0.9753,0.9753,0.9753,0.9753,0.9753,0.9511,0.9522,0.9536,0.9555,0.957,0.9585,0.9595,0.9609,0.9623,0.9642,0.9655,0.9671,0.9691,0.971,0.9725,0.9731,0.9736,0.9729,0.9738,0.9758,0.9762,0.9765,0.9764,0.973,0.973,0.9714,0.9714,0.9714]}]]